Regional Weather Roundup
Issued by NWS

Home | Current Version | Previous Version | Graphics & Text | Print | Product List | Glossary On
Versions: 1 2 3 4 5 6 7 8 9 10 11 12 13 14 15 16 17 18 19 20 21 22 23 24 25 26 27 28
000
ASUS45 KSLC 210010
RWRUT

UTAH REGIONAL WEATHER ROUNDUP
NATIONAL WEATHER SERVICE SALT LAKE CITY UT
500 PM MST SAT JAN 20 2018

UTZ001>011-023>025-210100-

NORTHERN UTAH

CITY           SKY/WX    TMP DP  RH WIND       PRES   REMARKS
BRIGHAM CITY   CLOUDY    34  23  64 N5        29.90R WCI  30
HILL AFB       MIX PCPN  30  25  80 NW14      29.88R WCI  20
LOGAN          CLOUDY    32  22  66 N10       29.90R WCI  24
OGDEN          CLOUDY    32  24  72 N13       29.88R WCI  22
SALT LAKE CITY FLURRIES  35  27  72 NW15      29.89R WCI  25
TOOELE VALLEY  LGT SNOW  30  30 100 CALM      29.92R
WENDOVER       MOCLDY    35  15  44 NW20G30   29.96R WCI  24
HEBER CITY     MOCLDY    30  21  69 N10       29.79R WCI  21
WEST JORDAN    CLOUDY    30  28  92 NW17      29.89R WCI  18

$$

UTZ011>015-024>027-210100-

CENTRAL/NORTHEAST UTAH

CITY           SKY/WX    TMP DP  RH WIND       PRES   REMARKS
PROVO AIRPORT  LGT SNOW  31  26  82 NW22      29.88R WCI  18
MOAB/CANYONLAN LGT RAIN  40  38  93 SW7       29.70R
DELTA          CLOUDY    28  27  93 N17G23    29.89R WCI  16
PRICE          CLOUDY    32  32 100 NW3       29.69S
RICHFIELD      FOG       28  28 100 CALM      29.85R VSB 3/4
ROOSEVELT      FLURRIES  32  30  93 W13       29.73R WCI  22
VERNAL         LGT SNOW  32  28  85 VRB3      29.72R FOG

$$

UTZ013>016-019>022-027-210100-

SOUTHERN UTAH

CITY           SKY/WX    TMP DP  RH WIND       PRES   REMARKS
BRYCE CANYON   LGT SNOW  23  19  85 NW12      29.75R VSB 3/4 WCI  12
CEDAR CITY     LGT SNOW  26  24  92 N13       29.86R FOG     WCI  15
MILFORD        LGT SNOW  27  24  89 N17       29.90R FOG     WCI  14
ST GEORGE      LGT RAIN  39  35  86 S10       29.88R WCI  32
HANKSVILLE       N/A     46  28  49 SW14G24   29.70S
KANAB          MOCLDY    37  32  81 S7        29.83R WCI  32
BLANDING         N/A     35  33  93 SW18G24   29.84R WCI  24

$$

REGIONAL REPORTS     COLORADO/ARIZONA

CITY           SKY/WX    TMP DP  RH WIND       PRES   REMARKS
CRAIG, CO      LGT SNOW  34  31  88 E3        29.70F FOG
GRAND JUNCTION LGT RAIN  43  35  73 NW3       29.69S
RIFLE, CO      LGT RAIN  39  37  92 CALM      29.70S
MONTROSE, CO   CLOUDY    47  27  45 SW21G30   29.72R
CORTEZ, CO     CLOUDY    43  34  70 SW15      29.77S
COLORADO CITY  FLURRIES  34  32  93 W6        29.84S WCI  29
PAGE, AZ       PTCLDY    45  30  55 W13G20    29.73R
GRAND CANYON   FLURRIES  33  20  58 SW13G20   29.78R WCI  24
KINGMAN, AZ    CLOUDY   N/A N/A N/A S10       29.88R
FLAGSTAFF, AZ  MOCLDY    30  21  69 SW12G24   29.80S WCI  20

$$

REGIONAL REPORTS    NEVADA/IDAHO/WYOMING

CITY           SKY/WX    TMP DP  RH WIND       PRES   REMARKS
LAS VEGAS, NV  MOCLDY    49  24  37 NW20G32   29.92R
ELY, NY        CLOUDY    21  16  81 N14       29.93R WCI   8
ELKO, NV       CLOUDY    31  17  56 NW14      30.01R WCI  21
POCATELLO, ID  PTCLDY    33  24  69 W10       29.96R WCI  25
BURLEY, ID     CLEAR     34  20  56 W7        29.98R WCI  28
FORT BRIDGER,  LGT SNOW  23  23 100 NW8       29.81R WCI  14
EVANSTON, WY   CLOUDY    20  19  96 N15       29.80R FOG     WCI   6
ROCK SPRINGS,  LGT SNOW  24  21  88 N8        29.76R VSB 1   WCI  15

$$




USA.gov is the U.S. government's official web portal to all federal, state and local government web resources and services.